Time,TemperatureF,DewpointF,PressureIn,WindDirection,WindDirectionDegrees,WindSpeedMPH,WindSpeedGustMPH,Humidity,HourlyPrecipIn,Conditions,Clouds,dailyrainin,SoftwareType,DateUTC
2013-07-13 00:02:00,75.6,60.3,29.95,North,-999,-999.0,-999.0,59,-99.99,,,-99.99,meteohub,2013-07-13 05:02:00,
2013-07-13 00:07:00,75.6,60.3,29.95,North,-999,-999.0,-999.0,59,-99.99,,,-99.99,meteohub,2013-07-13 05:07:00,
2013-07-13 00:12:00,75.4,60.1,29.95,North,-999,-999.0,-999.0,59,-99.99,,,-99.99,meteohub,2013-07-13 05:12:00,
2013-07-13 00:17:00,75.4,60.4,29.95,North,-999,-999.0,-999.0,60,-99.99,,,-99.99,meteohub,2013-07-13 05:17:00,
2013-07-13 00:22:00,75.2,60.8,29.96,North,-999,-999.0,-999.0,61,-99.99,,,-99.99,meteohub,2013-07-13 05:22:00,
2013-07-13 00:27:00,75.0,60.6,29.95,North,-999,-999.0,-999.0,61,-99.99,,,-99.99,meteohub,2013-07-13 05:27:00,
2013-07-13 00:32:00,74.8,60.4,29.96,North,-999,-999.0,-999.0,61,-99.99,,,-99.99,meteohub,2013-07-13 05:32:00,
2013-07-13 00:37:00,74.8,61.0,29.96,North,-999,-999.0,-999.0,62,-99.99,,,-99.99,meteohub,2013-07-13 05:37:00,
2013-07-13 00:42:00,74.7,60.8,29.96,North,-999,-999.0,-999.0,62,-99.99,,,-99.99,meteohub,2013-07-13 05:42:00,
2013-07-13 00:47:00,74.5,60.6,29.96,North,-999,-999.0,-999.0,62,-99.99,,,-99.99,meteohub,2013-07-13 05:47:00,
2013-07-13 00:52:00,74.1,60.3,29.96,North,-999,-999.0,-999.0,62,-99.99,,,-99.99,meteohub,2013-07-13 05:52:00,
2013-07-13 00:57:00,74.1,60.8,29.96,North,-999,-999.0,-999.0,63,-99.99,,,-99.99,meteohub,2013-07-13 05:57:00,
2013-07-13 01:02:00,74.1,60.8,29.96,North,-999,-999.0,-999.0,63,-99.99,,,-99.99,meteohub,2013-07-13 06:02:00,
2013-07-13 01:07:00,73.9,61.0,29.95,North,-999,-999.0,-999.0,64,-99.99,,,-99.99,meteohub,2013-07-13 06:07:00,
2013-07-13 01:12:00,73.8,60.8,29.95,North,-999,-999.0,-999.0,64,-99.99,,,-99.99,meteohub,2013-07-13 06:12:00,
2013-07-13 01:17:00,73.6,60.6,29.96,North,-999,-999.0,-999.0,64,-99.99,,,-99.99,meteohub,2013-07-13 06:17:00,
2013-07-13 01:22:00,73.6,60.6,29.96,North,-999,-999.0,-999.0,64,-99.99,,,-99.99,meteohub,2013-07-13 06:22:00,
2013-07-13 01:27:00,73.6,60.6,29.96,North,-999,-999.0,-999.0,64,-99.99,,,-99.99,meteohub,2013-07-13 06:27:00,
2013-07-13 01:32:00,73.6,60.6,29.96,North,-999,-999.0,-999.0,64,-99.99,,,-99.99,meteohub,2013-07-13 06:32:00,
2013-07-13 01:37:00,73.4,60.4,29.96,North,-999,-999.0,-999.0,64,-99.99,,,-99.99,meteohub,2013-07-13 06:37:00,
2013-07-13 01:42:00,73.2,60.3,29.96,North,-999,-999.0,-999.0,64,-99.99,,,-99.99,meteohub,2013-07-13 06:42:00,
2013-07-13 01:47:00,73.0,60.1,29.96,North,-999,-999.0,-999.0,64,-99.99,,,-99.99,meteohub,2013-07-13 06:47:00,
2013-07-13 01:52:00,72.9,59.9,29.96,North,-999,-999.0,-999.0,64,-99.99,,,-99.99,meteohub,2013-07-13 06:52:00,
2013-07-13 01:57:00,72.9,59.9,29.96,North,-999,-999.0,-999.0,64,-99.99,,,-99.99,meteohub,2013-07-13 06:57:00,
2013-07-13 02:02:00,72.5,60.1,29.96,North,-999,-999.0,-999.0,65,-99.99,,,-99.99,meteohub,2013-07-13 07:02:00,
2013-07-13 02:07:00,72.5,60.1,29.96,North,-999,-999.0,-999.0,65,-99.99,,,-99.99,meteohub,2013-07-13 07:07:00,
2013-07-13 02:12:00,72.5,59.5,29.97,North,-999,-999.0,-999.0,64,-99.99,,,-99.99,meteohub,2013-07-13 07:12:00,
2013-07-13 02:17:00,72.5,59.5,29.97,North,-999,-999.0,-999.0,64,-99.99,,,-99.99,meteohub,2013-07-13 07:17:00,
2013-07-13 02:22:00,72.3,59.5,29.96,North,-999,-999.0,-999.0,64,-99.99,,,-99.99,meteohub,2013-07-13 07:22:00,
2013-07-13 02:27:00,72.3,59.5,29.96,North,-999,-999.0,-999.0,64,-99.99,,,-99.99,meteohub,2013-07-13 07:27:00,
2013-07-13 02:32:00,72.3,59.5,29.96,North,-999,-999.0,-999.0,64,-99.99,,,-99.99,meteohub,2013-07-13 07:32:00,
2013-07-13 02:37:00,72.3,59.5,29.97,North,-999,-999.0,-999.0,64,-99.99,,,-99.99,meteohub,2013-07-13 07:37:00,
2013-07-13 02:42:00,72.3,59.5,29.97,North,-999,-999.0,-999.0,64,-99.99,,,-99.99,meteohub,2013-07-13 07:42:00,
2013-07-13 02:47:00,72.3,59.5,29.97,North,-999,-999.0,-999.0,64,-99.99,,,-99.99,meteohub,2013-07-13 07:47:00,
2013-07-13 02:52:00,72.0,59.2,29.96,North,-999,-999.0,-999.0,64,-99.99,,,-99.99,meteohub,2013-07-13 07:52:00,
2013-07-13 02:57:00,72.1,59.4,29.96,North,-999,-999.0,-999.0,64,-99.99,,,-99.99,meteohub,2013-07-13 07:57:00,
2013-07-13 03:02:00,72.0,59.2,29.97,North,-999,-999.0,-999.0,64,-99.99,,,-99.99,meteohub,2013-07-13 08:02:00,
2013-07-13 03:07:00,71.8,59.0,29.97,North,-999,-999.0,-999.0,64,-99.99,,,-99.99,meteohub,2013-07-13 08:07:00,
2013-07-13 03:12:00,71.8,59.0,29.97,North,-999,-999.0,-999.0,64,-99.99,,,-99.99,meteohub,2013-07-13 08:12:00,
2013-07-13 03:17:00,71.6,59.2,29.97,North,-999,-999.0,-999.0,65,-99.99,,,-99.99,meteohub,2013-07-13 08:17:00,
2013-07-13 03:22:00,71.6,59.2,29.97,North,-999,-999.0,-999.0,65,-99.99,,,-99.99,meteohub,2013-07-13 08:22:00,
2013-07-13 03:27:00,71.4,59.0,29.97,North,-999,-999.0,-999.0,65,-99.99,,,-99.99,meteohub,2013-07-13 08:27:00,
2013-07-13 03:32:00,71.4,59.0,29.97,North,-999,-999.0,-999.0,65,-99.99,,,-99.99,meteohub,2013-07-13 08:32:00,
2013-07-13 03:37:00,71.4,59.5,29.96,North,-999,-999.0,-999.0,66,-99.99,,,-99.99,meteohub,2013-07-13 08:37:00,
2013-07-13 03:42:00,71.2,59.4,29.97,North,-999,-999.0,-999.0,66,-99.99,,,-99.99,meteohub,2013-07-13 08:42:00,
2013-07-13 03:49:00,71.1,59.2,29.97,North,-999,-999.0,-999.0,66,-99.99,,,-99.99,meteohub,2013-07-13 08:49:00,
2013-07-13 03:55:00,71.1,59.2,29.96,North,-999,-999.0,-999.0,66,-99.99,,,-99.99,meteohub,2013-07-13 08:55:00,
2013-07-13 04:05:00,70.9,59.4,29.96,North,-999,-999.0,-999.0,67,-99.99,,,-99.99,meteohub,2013-07-13 09:05:00,
2013-07-13 04:11:00,70.7,58.8,29.96,North,-999,-999.0,-999.0,66,-99.99,,,-99.99,meteohub,2013-07-13 09:11:00,
2013-07-13 04:17:00,70.7,58.8,29.96,North,-999,-999.0,-999.0,66,-99.99,,,-99.99,meteohub,2013-07-13 09:17:00,
2013-07-13 04:22:00,70.5,59.0,29.95,North,-999,-999.0,-999.0,67,-99.99,,,-99.99,meteohub,2013-07-13 09:22:00,
2013-07-13 04:27:00,70.3,58.8,29.95,North,-999,-999.0,-999.0,67,-99.99,,,-99.99,meteohub,2013-07-13 09:27:00,
2013-07-13 04:32:00,70.2,58.3,29.95,North,-999,-999.0,-999.0,66,-99.99,,,-99.99,meteohub,2013-07-13 09:32:00,
2013-07-13 04:37:00,70.3,58.5,29.95,North,-999,-999.0,-999.0,66,-99.99,,,-99.99,meteohub,2013-07-13 09:37:00,
2013-07-13 04:42:00,70.3,58.5,29.94,North,-999,-999.0,-999.0,66,-99.99,,,-99.99,meteohub,2013-07-13 09:42:00,
2013-07-13 04:47:00,70.3,58.1,29.94,North,-999,-999.0,-999.0,65,-99.99,,,-99.99,meteohub,2013-07-13 09:47:00,
2013-07-13 04:52:00,70.5,58.1,29.94,North,-999,-999.0,-999.0,65,-99.99,,,-99.99,meteohub,2013-07-13 09:52:00,
2013-07-13 04:57:00,70.5,57.7,29.94,North,-999,-999.0,-999.0,64,-99.99,,,-99.99,meteohub,2013-07-13 09:57:00,
2013-07-13 05:02:00,70.5,57.7,29.94,North,-999,-999.0,-999.0,64,-99.99,,,-99.99,meteohub,2013-07-13 10:02:00,
2013-07-13 05:07:00,70.5,57.4,29.95,North,-999,-999.0,-999.0,63,-99.99,,,-99.99,meteohub,2013-07-13 10:07:00,
2013-07-13 05:12:00,70.5,57.7,29.95,North,-999,-999.0,-999.0,64,-99.99,,,-99.99,meteohub,2013-07-13 10:12:00,
2013-07-13 05:17:00,70.5,57.7,29.94,North,-999,-999.0,-999.0,64,-99.99,,,-99.99,meteohub,2013-07-13 10:17:00,
2013-07-13 05:22:00,70.5,57.4,29.95,North,-999,-999.0,-999.0,63,-99.99,,,-99.99,meteohub,2013-07-13 10:22:00,
2013-07-13 05:29:00,70.3,57.6,29.95,North,-999,-999.0,-999.0,64,-99.99,,,-99.99,meteohub,2013-07-13 10:29:00,
2013-07-13 05:35:00,70.2,57.4,29.95,North,-999,-999.0,-999.0,64,-99.99,,,-99.99,meteohub,2013-07-13 10:35:00,
2013-07-13 05:41:00,70.3,57.6,29.95,North,-999,-999.0,-999.0,64,-99.99,,,-99.99,meteohub,2013-07-13 10:41:00,
2013-07-13 05:47:00,70.0,57.2,29.96,North,-999,-999.0,-999.0,64,-99.99,,,-99.99,meteohub,2013-07-13 10:47:00,
2013-07-13 05:52:00,70.0,57.7,29.96,North,-999,-999.0,-999.0,65,-99.99,,,-99.99,meteohub,2013-07-13 10:52:00,
2013-07-13 05:57:00,69.8,57.6,29.96,North,-999,-999.0,-999.0,65,-99.99,,,-99.99,meteohub,2013-07-13 10:57:00,
2013-07-13 06:02:00,69.6,57.4,29.96,North,-999,-999.0,-999.0,65,-99.99,,,-99.99,meteohub,2013-07-13 11:02:00,
2013-07-13 06:07:00,69.6,57.7,29.96,North,-999,-999.0,-999.0,66,-99.99,,,-99.99,meteohub,2013-07-13 11:07:00,
2013-07-13 06:12:00,69.6,57.7,29.96,North,-999,-999.0,-999.0,66,-99.99,,,-99.99,meteohub,2013-07-13 11:12:00,
2013-07-13 06:17:00,69.4,57.6,29.96,North,-999,-999.0,-999.0,66,-99.99,,,-99.99,meteohub,2013-07-13 11:17:00,
2013-07-13 06:22:00,69.3,57.9,29.96,North,-999,-999.0,-999.0,67,-99.99,,,-99.99,meteohub,2013-07-13 11:22:00,
2013-07-13 06:27:00,69.3,57.9,29.96,North,-999,-999.0,-999.0,67,-99.99,,,-99.99,meteohub,2013-07-13 11:27:00,
2013-07-13 06:32:00,69.1,58.1,29.97,North,-999,-999.0,-999.0,68,-99.99,,,-99.99,meteohub,2013-07-13 11:32:00,
2013-07-13 06:37:00,69.1,58.1,29.97,North,-999,-999.0,-999.0,68,-99.99,,,-99.99,meteohub,2013-07-13 11:37:00,
2013-07-13 06:42:00,69.4,57.9,29.97,North,-999,-999.0,-999.0,67,-99.99,,,-99.99,meteohub,2013-07-13 11:42:00,
2013-07-13 06:48:00,70.2,58.3,29.97,North,-999,-999.0,-999.0,66,-99.99,,,-99.99,meteohub,2013-07-13 11:48:00,
2013-07-13 06:54:00,70.7,58.3,29.97,North,-999,-999.0,-999.0,65,-99.99,,,-99.99,meteohub,2013-07-13 11:54:00,
2013-07-13 07:00:00,71.4,58.6,29.97,North,-999,-999.0,-999.0,64,-99.99,,,-99.99,meteohub,2013-07-13 12:00:00,
2013-07-13 07:06:00,72.0,58.3,29.98,North,-999,-999.0,-999.0,62,-99.99,,,-99.99,meteohub,2013-07-13 12:06:00,
2013-07-13 07:12:00,72.5,58.8,29.97,North,-999,-999.0,-999.0,62,-99.99,,,-99.99,meteohub,2013-07-13 12:12:00,
2013-07-13 07:17:00,72.7,58.5,29.97,North,-999,-999.0,-999.0,61,-99.99,,,-99.99,meteohub,2013-07-13 12:17:00,
2013-07-13 07:22:00,72.7,58.5,29.97,North,-999,-999.0,-999.0,61,-99.99,,,-99.99,meteohub,2013-07-13 12:22:00,
2013-07-13 07:27:00,72.9,59.0,29.97,North,-999,-999.0,-999.0,62,-99.99,,,-99.99,meteohub,2013-07-13 12:27:00,
2013-07-13 07:32:00,73.6,59.4,29.98,North,-999,-999.0,-999.0,61,-99.99,,,-99.99,meteohub,2013-07-13 12:32:00,
2013-07-13 07:37:00,74.1,58.8,29.97,North,-999,-999.0,-999.0,59,-99.99,,,-99.99,meteohub,2013-07-13 12:37:00,
2013-07-13 07:42:00,73.9,58.6,29.98,North,-999,-999.0,-999.0,59,-99.99,,,-99.99,meteohub,2013-07-13 12:42:00,
2013-07-13 07:48:00,74.8,58.6,29.98,North,-999,-999.0,-999.0,57,-99.99,,,-99.99,meteohub,2013-07-13 12:48:00,
2013-07-13 07:55:00,75.6,59.2,29.97,North,-999,-999.0,-999.0,57,-99.99,,,-99.99,meteohub,2013-07-13 12:55:00,
2013-07-13 08:01:00,75.9,59.2,29.98,North,-999,-999.0,-999.0,56,-99.99,,,-99.99,meteohub,2013-07-13 13:01:00,
2013-07-13 08:07:00,76.5,58.1,29.97,North,-999,-999.0,-999.0,53,-99.99,,,-99.99,meteohub,2013-07-13 13:07:00,
2013-07-13 08:12:00,76.5,59.2,29.98,North,-999,-999.0,-999.0,55,-99.99,,,-99.99,meteohub,2013-07-13 13:12:00,
2013-07-13 08:17:00,76.6,58.8,29.98,North,-999,-999.0,-999.0,54,-99.99,,,-99.99,meteohub,2013-07-13 13:17:00,
2013-07-13 08:22:00,77.2,59.2,29.99,North,-999,-999.0,-999.0,54,-99.99,,,-99.99,meteohub,2013-07-13 13:22:00,
2013-07-13 08:27:00,77.4,58.8,29.98,North,-999,-999.0,-999.0,53,-99.99,,,-99.99,meteohub,2013-07-13 13:27:00,
2013-07-13 08:32:00,78.3,59.2,29.99,North,-999,-999.0,-999.0,52,-99.99,,,-99.99,meteohub,2013-07-13 13:32:00,
2013-07-13 08:37:00,79.0,59.4,29.98,North,-999,-999.0,-999.0,51,-99.99,,,-99.99,meteohub,2013-07-13 13:37:00,
2013-07-13 08:42:00,79.2,59.5,29.99,North,-999,-999.0,-999.0,51,-99.99,,,-99.99,meteohub,2013-07-13 13:42:00,
2013-07-13 08:47:00,79.5,59.2,29.98,North,-999,-999.0,-999.0,50,-99.99,,,-99.99,meteohub,2013-07-13 13:47:00,
2013-07-13 08:52:00,79.9,59.5,29.98,North,-999,-999.0,-999.0,50,-99.99,,,-99.99,meteohub,2013-07-13 13:52:00,
2013-07-13 08:57:00,80.1,59.7,29.99,North,-999,-999.0,-999.0,50,-99.99,,,-99.99,meteohub,2013-07-13 13:57:00,
2013-07-13 09:02:00,80.2,59.4,29.99,North,-999,-999.0,-999.0,49,-99.99,,,-99.99,meteohub,2013-07-13 14:02:00,
2013-07-13 09:07:00,81.3,60.3,29.99,North,-999,-999.0,-999.0,49,-99.99,,,-99.99,meteohub,2013-07-13 14:07:00,
2013-07-13 09:12:00,81.9,60.8,29.99,North,-999,-999.0,-999.0,49,-99.99,,,-99.99,meteohub,2013-07-13 14:12:00,
2013-07-13 09:17:00,81.5,60.4,29.99,North,-999,-999.0,-999.0,49,-99.99,,,-99.99,meteohub,2013-07-13 14:17:00,
2013-07-13 09:22:00,80.8,60.4,29.99,North,-999,-999.0,-999.0,50,-99.99,,,-99.99,meteohub,2013-07-13 14:22:00,
2013-07-13 09:27:00,80.6,60.8,29.99,North,-999,-999.0,-999.0,51,-99.99,,,-99.99,meteohub,2013-07-13 14:27:00,
2013-07-13 09:32:00,80.6,61.9,29.99,North,-999,-999.0,-999.0,53,-99.99,,,-99.99,meteohub,2013-07-13 14:32:00,
2013-07-13 09:37:00,81.3,62.1,29.99,North,-999,-999.0,-999.0,52,-99.99,,,-99.99,meteohub,2013-07-13 14:37:00,
2013-07-13 09:42:00,82.0,62.6,29.99,North,-999,-999.0,-999.0,52,-99.99,,,-99.99,meteohub,2013-07-13 14:42:00,
2013-07-13 09:47:00,84.7,61.7,29.99,North,-999,-999.0,-999.0,46,-99.99,,,-99.99,meteohub,2013-07-13 14:47:00,
2013-07-13 09:52:00,85.8,61.3,29.99,North,-999,-999.0,-999.0,44,-99.99,,,-99.99,meteohub,2013-07-13 14:52:00,
2013-07-13 09:57:00,86.0,61.5,29.99,North,-999,-999.0,-999.0,44,-99.99,,,-99.99,meteohub,2013-07-13 14:57:00,
2013-07-13 10:02:00,86.0,61.5,29.98,North,-999,-999.0,-999.0,44,-99.99,,,-99.99,meteohub,2013-07-13 15:02:00,
2013-07-13 10:07:00,85.3,61.0,29.98,North,-999,-999.0,-999.0,44,-99.99,,,-99.99,meteohub,2013-07-13 15:07:00,
2013-07-13 10:12:00,85.1,62.1,29.98,North,-999,-999.0,-999.0,46,-99.99,,,-99.99,meteohub,2013-07-13 15:12:00,
2013-07-13 10:17:00,85.3,62.2,29.98,North,-999,-999.0,-999.0,46,-99.99,,,-99.99,meteohub,2013-07-13 15:17:00,
2013-07-13 10:22:00,86.5,62.1,29.98,North,-999,-999.0,-999.0,44,-99.99,,,-99.99,meteohub,2013-07-13 15:22:00,
2013-07-13 10:27:00,86.7,61.5,29.98,North,-999,-999.0,-999.0,43,-99.99,,,-99.99,meteohub,2013-07-13 15:27:00,
2013-07-13 10:32:00,88.0,62.1,29.98,North,-999,-999.0,-999.0,42,-99.99,,,-99.99,meteohub,2013-07-13 15:32:00,
2013-07-13 10:37:00,88.2,60.8,29.98,North,-999,-999.0,-999.0,40,-99.99,,,-99.99,meteohub,2013-07-13 15:37:00,
2013-07-13 10:42:00,87.8,61.2,29.98,North,-999,-999.0,-999.0,41,-99.99,,,-99.99,meteohub,2013-07-13 15:42:00,
2013-07-13 10:47:00,88.0,61.3,29.98,North,-999,-999.0,-999.0,41,-99.99,,,-99.99,meteohub,2013-07-13 15:47:00,
2013-07-13 10:52:00,87.4,61.5,29.98,North,-999,-999.0,-999.0,42,-99.99,,,-99.99,meteohub,2013-07-13 15:52:00,
2013-07-13 10:57:00,88.0,61.3,29.99,North,-999,-999.0,-999.0,41,-99.99,,,-99.99,meteohub,2013-07-13 15:57:00,
2013-07-13 11:02:00,89.1,63.0,29.99,North,-999,-999.0,-999.0,42,-99.99,,,-99.99,meteohub,2013-07-13 16:02:00,
2013-07-13 11:07:00,88.7,61.3,29.99,North,-999,-999.0,-999.0,40,-99.99,,,-99.99,meteohub,2013-07-13 16:07:00,
2013-07-13 11:12:00,88.2,63.5,29.99,North,-999,-999.0,-999.0,44,-99.99,,,-99.99,meteohub,2013-07-13 16:12:00,
2013-07-13 11:17:00,88.2,61.5,29.98,North,-999,-999.0,-999.0,41,-99.99,,,-99.99,meteohub,2013-07-13 16:17:00,
2013-07-13 11:22:00,88.0,62.1,29.98,North,-999,-999.0,-999.0,42,-99.99,,,-99.99,meteohub,2013-07-13 16:22:00,
2013-07-13 11:29:00,88.0,60.6,29.98,North,-999,-999.0,-999.0,40,-99.99,,,-99.99,meteohub,2013-07-13 16:29:00,
2013-07-13 11:35:00,88.0,63.3,29.98,North,-999,-999.0,-999.0,44,-99.99,,,-99.99,meteohub,2013-07-13 16:35:00,
2013-07-13 11:41:00,88.7,62.1,29.99,North,-999,-999.0,-999.0,41,-99.99,,,-99.99,meteohub,2013-07-13 16:41:00,
2013-07-13 11:47:00,88.7,63.3,29.98,North,-999,-999.0,-999.0,43,-99.99,,,-99.99,meteohub,2013-07-13 16:47:00,
2013-07-13 11:52:00,89.1,63.7,29.98,North,-999,-999.0,-999.0,43,-99.99,,,-99.99,meteohub,2013-07-13 16:52:00,
2013-07-13 11:57:00,88.7,62.1,29.97,North,-999,-999.0,-999.0,41,-99.99,,,-99.99,meteohub,2013-07-13 16:57:00,
2013-07-13 12:02:00,88.7,62.6,29.97,North,-999,-999.0,-999.0,42,-99.99,,,-99.99,meteohub,2013-07-13 17:02:00,
2013-07-13 12:07:00,89.4,64.0,29.97,North,-999,-999.0,-999.0,43,-99.99,,,-99.99,meteohub,2013-07-13 17:07:00,
2013-07-13 12:14:00,91.2,62.8,29.97,North,-999,-999.0,-999.0,39,-99.99,,,-99.99,meteohub,2013-07-13 17:14:00,
2013-07-13 12:20:00,91.8,62.6,29.97,North,-999,-999.0,-999.0,38,-99.99,,,-99.99,meteohub,2013-07-13 17:20:00,
2013-07-13 12:26:00,91.9,61.9,29.98,North,-999,-999.0,-999.0,37,-99.99,,,-99.99,meteohub,2013-07-13 17:26:00,
2013-07-13 12:32:00,92.7,63.3,29.98,North,-999,-999.0,-999.0,38,-99.99,,,-99.99,meteohub,2013-07-13 17:32:00,
2013-07-13 12:37:00,92.3,62.2,29.97,North,-999,-999.0,-999.0,37,-99.99,,,-99.99,meteohub,2013-07-13 17:37:00,
2013-07-13 12:42:00,92.8,63.5,29.97,North,-999,-999.0,-999.0,38,-99.99,,,-99.99,meteohub,2013-07-13 17:42:00,
2013-07-13 12:47:00,92.1,63.7,29.97,North,-999,-999.0,-999.0,39,-99.99,,,-99.99,meteohub,2013-07-13 17:47:00,
2013-07-13 12:52:00,92.1,62.1,29.97,North,-999,-999.0,-999.0,37,-99.99,,,-99.99,meteohub,2013-07-13 17:52:00,
2013-07-13 12:57:00,91.2,63.5,29.97,North,-999,-999.0,-999.0,40,-99.99,,,-99.99,meteohub,2013-07-13 17:57:00,
2013-07-13 13:02:00,90.9,63.9,29.97,North,-999,-999.0,-999.0,41,-99.99,,,-99.99,meteohub,2013-07-13 18:02:00,
2013-07-13 13:07:00,91.8,66.0,29.96,North,-999,-999.0,-999.0,43,-99.99,,,-99.99,meteohub,2013-07-13 18:07:00,
2013-07-13 13:12:00,92.5,66.0,29.96,North,-999,-999.0,-999.0,42,-99.99,,,-99.99,meteohub,2013-07-13 18:12:00,
2013-07-13 13:17:00,92.5,64.6,29.96,North,-999,-999.0,-999.0,40,-99.99,,,-99.99,meteohub,2013-07-13 18:17:00,
2013-07-13 13:22:00,93.0,65.1,29.96,North,-999,-999.0,-999.0,40,-99.99,,,-99.99,meteohub,2013-07-13 18:22:00,
2013-07-13 13:27:00,93.4,64.0,29.96,North,-999,-999.0,-999.0,38,-99.99,,,-99.99,meteohub,2013-07-13 18:27:00,
2013-07-13 13:32:00,93.9,63.7,29.96,North,-999,-999.0,-999.0,37,-99.99,,,-99.99,meteohub,2013-07-13 18:32:00,
2013-07-13 13:37:00,94.5,63.3,29.95,North,-999,-999.0,-999.0,36,-99.99,,,-99.99,meteohub,2013-07-13 18:37:00,
2013-07-13 13:42:00,93.9,65.1,29.96,North,-999,-999.0,-999.0,39,-99.99,,,-99.99,meteohub,2013-07-13 18:42:00,
2013-07-13 13:47:00,93.7,63.5,29.96,North,-999,-999.0,-999.0,37,-99.99,,,-99.99,meteohub,2013-07-13 18:47:00,
2013-07-13 13:52:00,93.7,65.1,29.96,North,-999,-999.0,-999.0,39,-99.99,,,-99.99,meteohub,2013-07-13 18:52:00,
2013-07-13 13:57:00,94.1,63.9,29.95,North,-999,-999.0,-999.0,37,-99.99,,,-99.99,meteohub,2013-07-13 18:57:00,
2013-07-13 14:02:00,94.8,65.3,29.96,North,-999,-999.0,-999.0,38,-99.99,,,-99.99,meteohub,2013-07-13 19:02:00,
2013-07-13 14:07:00,95.9,65.5,29.95,North,-999,-999.0,-999.0,37,-99.99,,,-99.99,meteohub,2013-07-13 19:07:00,
2013-07-13 14:12:00,96.1,64.0,29.95,North,-999,-999.0,-999.0,35,-99.99,,,-99.99,meteohub,2013-07-13 19:12:00,
2013-07-13 14:17:00,96.4,64.4,29.95,North,-999,-999.0,-999.0,35,-99.99,,,-99.99,meteohub,2013-07-13 19:17:00,
2013-07-13 14:22:00,96.8,64.6,29.94,North,-999,-999.0,-999.0,35,-99.99,,,-99.99,meteohub,2013-07-13 19:22:00,
2013-07-13 14:27:00,96.8,64.6,29.94,North,-999,-999.0,-999.0,35,-99.99,,,-99.99,meteohub,2013-07-13 19:27:00,
2013-07-13 14:32:00,96.1,67.8,29.94,North,-999,-999.0,-999.0,40,-99.99,,,-99.99,meteohub,2013-07-13 19:32:00,
2013-07-13 14:37:00,94.8,66.0,29.95,North,-999,-999.0,-999.0,39,-99.99,,,-99.99,meteohub,2013-07-13 19:37:00,
2013-07-13 14:42:00,93.7,65.1,29.95,North,-999,-999.0,-999.0,39,-99.99,,,-99.99,meteohub,2013-07-13 19:42:00,
2013-07-13 14:47:00,94.6,65.1,29.94,North,-999,-999.0,-999.0,38,-99.99,,,-99.99,meteohub,2013-07-13 19:47:00,
2013-07-13 14:52:00,95.2,65.5,29.94,North,-999,-999.0,-999.0,38,-99.99,,,-99.99,meteohub,2013-07-13 19:52:00,
2013-07-13 14:57:00,94.1,64.6,29.94,North,-999,-999.0,-999.0,38,-99.99,,,-99.99,meteohub,2013-07-13 19:57:00,
2013-07-13 15:02:00,94.5,66.4,29.94,North,-999,-999.0,-999.0,40,-99.99,,,-99.99,meteohub,2013-07-13 20:02:00,
2013-07-13 15:07:00,94.6,65.8,29.94,North,-999,-999.0,-999.0,39,-99.99,,,-99.99,meteohub,2013-07-13 20:07:00,
2013-07-13 15:12:00,95.4,66.6,29.94,North,-999,-999.0,-999.0,39,-99.99,,,-99.99,meteohub,2013-07-13 20:12:00,
2013-07-13 15:17:00,94.3,64.8,29.94,North,-999,-999.0,-999.0,38,-99.99,,,-99.99,meteohub,2013-07-13 20:17:00,
2013-07-13 15:22:00,94.8,66.0,29.94,North,-999,-999.0,-999.0,39,-99.99,,,-99.99,meteohub,2013-07-13 20:22:00,
2013-07-13 15:27:00,94.5,65.7,29.94,North,-999,-999.0,-999.0,39,-99.99,,,-99.99,meteohub,2013-07-13 20:27:00,
2013-07-13 15:32:00,94.8,66.0,29.94,North,-999,-999.0,-999.0,39,-99.99,,,-99.99,meteohub,2013-07-13 20:32:00,
2013-07-13 15:37:00,95.0,66.2,29.94,North,-999,-999.0,-999.0,39,-99.99,,,-99.99,meteohub,2013-07-13 20:37:00,
2013-07-13 15:42:00,94.8,67.5,29.94,North,-999,-999.0,-999.0,41,-99.99,,,-99.99,meteohub,2013-07-13 20:42:00,
2013-07-13 15:47:00,94.6,67.3,29.94,North,-999,-999.0,-999.0,41,-99.99,,,-99.99,meteohub,2013-07-13 20:47:00,
2013-07-13 15:52:00,93.6,66.4,29.94,North,-999,-999.0,-999.0,41,-99.99,,,-99.99,meteohub,2013-07-13 20:52:00,
2013-07-13 15:57:00,92.8,66.4,29.94,North,-999,-999.0,-999.0,42,-99.99,,,-99.99,meteohub,2013-07-13 20:57:00,
2013-07-13 16:02:00,93.2,66.7,29.94,North,-999,-999.0,-999.0,42,-99.99,,,-99.99,meteohub,2013-07-13 21:02:00,
2013-07-13 16:07:00,94.1,67.5,29.93,North,-999,-999.0,-999.0,42,-99.99,,,-99.99,meteohub,2013-07-13 21:07:00,
2013-07-13 16:12:00,94.6,65.8,29.94,North,-999,-999.0,-999.0,39,-99.99,,,-99.99,meteohub,2013-07-13 21:12:00,
2013-07-13 16:17:00,93.9,68.0,29.93,North,-999,-999.0,-999.0,43,-99.99,,,-99.99,meteohub,2013-07-13 21:17:00,
2013-07-13 16:22:00,93.2,66.0,29.93,North,-999,-999.0,-999.0,41,-99.99,,,-99.99,meteohub,2013-07-13 21:22:00,
2013-07-13 16:27:00,93.2,66.7,29.93,North,-999,-999.0,-999.0,42,-99.99,,,-99.99,meteohub,2013-07-13 21:27:00,
2013-07-13 16:32:00,93.4,66.9,29.92,North,-999,-999.0,-999.0,42,-99.99,,,-99.99,meteohub,2013-07-13 21:32:00,
2013-07-13 16:37:00,93.0,65.8,29.92,North,-999,-999.0,-999.0,41,-99.99,,,-99.99,meteohub,2013-07-13 21:37:00,
2013-07-13 16:42:00,92.3,66.6,29.92,North,-999,-999.0,-999.0,43,-99.99,,,-99.99,meteohub,2013-07-13 21:42:00,
2013-07-13 16:47:00,90.9,65.8,29.93,North,-999,-999.0,-999.0,44,-99.99,,,-99.99,meteohub,2013-07-13 21:47:00,
2013-07-13 16:52:00,90.0,67.1,29.92,North,-999,-999.0,-999.0,47,-99.99,,,-99.99,meteohub,2013-07-13 21:52:00,
2013-07-13 16:57:00,88.9,66.0,29.93,North,-999,-999.0,-999.0,47,-99.99,,,-99.99,meteohub,2013-07-13 21:57:00,
2013-07-13 17:02:00,88.0,66.4,29.92,North,-999,-999.0,-999.0,49,-99.99,,,-99.99,meteohub,2013-07-13 22:02:00,
2013-07-13 17:07:00,87.1,66.2,29.93,North,-999,-999.0,-999.0,50,-99.99,,,-99.99,meteohub,2013-07-13 22:07:00,
2013-07-13 17:12:00,86.9,66.0,29.92,North,-999,-999.0,-999.0,50,-99.99,,,-99.99,meteohub,2013-07-13 22:12:00,
2013-07-13 17:17:00,86.7,66.4,29.91,North,-999,-999.0,-999.0,51,-99.99,,,-99.99,meteohub,2013-07-13 22:17:00,
2013-07-13 17:22:00,86.4,66.7,29.92,North,-999,-999.0,-999.0,52,-99.99,,,-99.99,meteohub,2013-07-13 22:22:00,
2013-07-13 17:27:00,86.4,66.7,29.92,North,-999,-999.0,-999.0,52,-99.99,,,-99.99,meteohub,2013-07-13 22:27:00,
2013-07-13 17:32:00,86.2,67.1,29.92,North,-999,-999.0,-999.0,53,-99.99,,,-99.99,meteohub,2013-07-13 22:32:00,
2013-07-13 17:37:00,86.0,66.4,29.92,North,-999,-999.0,-999.0,52,-99.99,,,-99.99,meteohub,2013-07-13 22:37:00,
2013-07-13 17:42:00,86.0,66.4,29.92,North,-999,-999.0,-999.0,52,-99.99,,,-99.99,meteohub,2013-07-13 22:42:00,
2013-07-13 17:47:00,86.0,66.4,29.92,North,-999,-999.0,-999.0,52,-99.99,,,-99.99,meteohub,2013-07-13 22:47:00,
2013-07-13 17:52:00,85.8,66.2,29.92,North,-999,-999.0,-999.0,52,-99.99,,,-99.99,meteohub,2013-07-13 22:52:00,
2013-07-13 17:57:00,85.3,65.7,29.92,North,-999,-999.0,-999.0,52,-99.99,,,-99.99,meteohub,2013-07-13 22:57:00,
2013-07-13 18:02:00,85.3,66.7,29.91,North,-999,-999.0,-999.0,54,-99.99,,,-99.99,meteohub,2013-07-13 23:02:00,
2013-07-13 18:07:00,85.1,66.6,29.91,North,-999,-999.0,-999.0,54,-99.99,,,-99.99,meteohub,2013-07-13 23:07:00,
2013-07-13 18:12:00,85.1,66.6,29.91,North,-999,-999.0,-999.0,54,-99.99,,,-99.99,meteohub,2013-07-13 23:12:00,
2013-07-13 18:17:00,85.1,67.1,29.91,North,-999,-999.0,-999.0,55,-99.99,,,-99.99,meteohub,2013-07-13 23:17:00,
2013-07-13 18:22:00,84.9,66.9,29.91,North,-999,-999.0,-999.0,55,-99.99,,,-99.99,meteohub,2013-07-13 23:22:00,
2013-07-13 18:27:00,84.9,66.9,29.91,North,-999,-999.0,-999.0,55,-99.99,,,-99.99,meteohub,2013-07-13 23:27:00,
2013-07-13 18:32:00,84.7,67.3,29.91,North,-999,-999.0,-999.0,56,-99.99,,,-99.99,meteohub,2013-07-13 23:32:00,
2013-07-13 18:37:00,84.6,67.6,29.91,North,-999,-999.0,-999.0,57,-99.99,,,-99.99,meteohub,2013-07-13 23:37:00,
2013-07-13 18:42:00,83.7,67.3,29.91,North,-999,-999.0,-999.0,58,-99.99,,,-99.99,meteohub,2013-07-13 23:42:00,
2013-07-13 18:47:00,84.0,67.1,29.91,North,-999,-999.0,-999.0,57,-99.99,,,-99.99,meteohub,2013-07-13 23:47:00,
2013-07-13 18:52:00,83.7,67.3,29.91,North,-999,-999.0,-999.0,58,-99.99,,,-99.99,meteohub,2013-07-13 23:52:00,
2013-07-13 18:57:00,83.5,67.1,29.91,North,-999,-999.0,-999.0,58,-99.99,,,-99.99,meteohub,2013-07-13 23:57:00,
2013-07-13 19:02:00,82.8,66.0,29.91,North,-999,-999.0,-999.0,57,-99.99,,,-99.99,meteohub,2013-07-14 00:02:00,
2013-07-13 19:07:00,83.3,66.9,29.91,North,-999,-999.0,-999.0,58,-99.99,,,-99.99,meteohub,2013-07-14 00:07:00,
2013-07-13 19:12:00,83.1,66.7,29.91,North,-999,-999.0,-999.0,58,-99.99,,,-99.99,meteohub,2013-07-14 00:12:00,
2013-07-13 19:17:00,83.1,66.7,29.91,North,-999,-999.0,-999.0,58,-99.99,,,-99.99,meteohub,2013-07-14 00:17:00,
2013-07-13 19:22:00,82.9,66.6,29.91,North,-999,-999.0,-999.0,58,-99.99,,,-99.99,meteohub,2013-07-14 00:22:00,
2013-07-13 19:27:00,82.2,66.0,29.91,North,-999,-999.0,-999.0,58,-99.99,,,-99.99,meteohub,2013-07-14 00:27:00,
2013-07-13 19:32:00,82.6,66.7,29.91,North,-999,-999.0,-999.0,59,-99.99,,,-99.99,meteohub,2013-07-14 00:32:00,
2013-07-13 19:37:00,82.4,66.6,29.91,North,-999,-999.0,-999.0,59,-99.99,,,-99.99,meteohub,2013-07-14 00:37:00,
2013-07-13 19:42:00,81.7,66.0,29.91,North,-999,-999.0,-999.0,59,-99.99,,,-99.99,meteohub,2013-07-14 00:42:00,
2013-07-13 19:47:00,82.0,66.4,29.91,North,-999,-999.0,-999.0,59,-99.99,,,-99.99,meteohub,2013-07-14 00:47:00,
2013-07-13 19:52:00,81.9,66.2,29.91,North,-999,-999.0,-999.0,59,-99.99,,,-99.99,meteohub,2013-07-14 00:52:00,
2013-07-13 19:57:00,81.7,66.0,29.91,North,-999,-999.0,-999.0,59,-99.99,,,-99.99,meteohub,2013-07-14 00:57:00,
2013-07-13 20:02:00,81.3,65.1,29.91,North,-999,-999.0,-999.0,58,-99.99,,,-99.99,meteohub,2013-07-14 01:02:00,
2013-07-13 20:07:00,81.1,65.5,29.91,North,-999,-999.0,-999.0,59,-99.99,,,-99.99,meteohub,2013-07-14 01:07:00,
2013-07-13 20:12:00,81.0,64.8,29.91,North,-999,-999.0,-999.0,58,-99.99,,,-99.99,meteohub,2013-07-14 01:12:00,
2013-07-13 20:17:00,80.8,65.1,29.91,North,-999,-999.0,-999.0,59,-99.99,,,-99.99,meteohub,2013-07-14 01:17:00,
2013-07-13 20:22:00,80.6,64.9,29.92,North,-999,-999.0,-999.0,59,-99.99,,,-99.99,meteohub,2013-07-14 01:22:00,
2013-07-13 20:27:00,80.4,64.8,29.91,North,-999,-999.0,-999.0,59,-99.99,,,-99.99,meteohub,2013-07-14 01:27:00,
2013-07-13 20:32:00,80.4,64.8,29.91,North,-999,-999.0,-999.0,59,-99.99,,,-99.99,meteohub,2013-07-14 01:32:00,
2013-07-13 20:37:00,80.2,64.6,29.92,North,-999,-999.0,-999.0,59,-99.99,,,-99.99,meteohub,2013-07-14 01:37:00,
2013-07-13 20:42:00,80.1,64.4,29.92,North,-999,-999.0,-999.0,59,-99.99,,,-99.99,meteohub,2013-07-14 01:42:00,
2013-07-13 20:47:00,79.9,64.2,29.92,North,-999,-999.0,-999.0,59,-99.99,,,-99.99,meteohub,2013-07-14 01:47:00,
2013-07-13 20:54:00,79.9,64.2,29.92,North,-999,-999.0,-999.0,59,-99.99,,,-99.99,meteohub,2013-07-14 01:54:00,
2013-07-13 21:00:00,79.9,64.2,29.93,North,-999,-999.0,-999.0,59,-99.99,,,-99.99,meteohub,2013-07-14 02:00:00,
2013-07-13 21:06:00,79.7,64.6,29.92,North,-999,-999.0,-999.0,60,-99.99,,,-99.99,meteohub,2013-07-14 02:06:00,
2013-07-13 21:12:00,79.5,64.9,29.93,North,-999,-999.0,-999.0,61,-99.99,,,-99.99,meteohub,2013-07-14 02:12:00,
2013-07-13 21:17:00,79.3,64.2,29.93,North,-999,-999.0,-999.0,60,-99.99,,,-99.99,meteohub,2013-07-14 02:17:00,
2013-07-13 21:22:00,79.3,64.8,29.93,North,-999,-999.0,-999.0,61,-99.99,,,-99.99,meteohub,2013-07-14 02:22:00,
2013-07-13 21:27:00,79.3,64.2,29.93,North,-999,-999.0,-999.0,60,-99.99,,,-99.99,meteohub,2013-07-14 02:27:00,
2013-07-13 21:32:00,79.0,64.4,29.93,North,-999,-999.0,-999.0,61,-99.99,,,-99.99,meteohub,2013-07-14 02:32:00,
2013-07-13 21:37:00,78.8,64.2,29.94,North,-999,-999.0,-999.0,61,-99.99,,,-99.99,meteohub,2013-07-14 02:37:00,
2013-07-13 21:42:00,78.4,63.9,29.94,North,-999,-999.0,-999.0,61,-99.99,,,-99.99,meteohub,2013-07-14 02:42:00,
2013-07-13 21:47:00,78.6,64.0,29.94,North,-999,-999.0,-999.0,61,-99.99,,,-99.99,meteohub,2013-07-14 02:47:00,
2013-07-13 21:52:00,78.4,63.9,29.95,North,-999,-999.0,-999.0,61,-99.99,,,-99.99,meteohub,2013-07-14 02:52:00,
2013-07-13 21:57:00,78.4,64.4,29.94,North,-999,-999.0,-999.0,62,-99.99,,,-99.99,meteohub,2013-07-14 02:57:00,
2013-07-13 22:02:00,78.3,64.2,29.95,North,-999,-999.0,-999.0,62,-99.99,,,-99.99,meteohub,2013-07-14 03:02:00,
2013-07-13 22:07:00,78.1,64.4,29.95,North,-999,-999.0,-999.0,63,-99.99,,,-99.99,meteohub,2013-07-14 03:07:00,
2013-07-13 22:12:00,77.9,64.2,29.96,North,-999,-999.0,-999.0,63,-99.99,,,-99.99,meteohub,2013-07-14 03:12:00,
2013-07-13 22:17:00,77.7,64.6,29.96,North,-999,-999.0,-999.0,64,-99.99,,,-99.99,meteohub,2013-07-14 03:17:00,
2013-07-13 22:22:00,77.5,64.4,29.95,North,-999,-999.0,-999.0,64,-99.99,,,-99.99,meteohub,2013-07-14 03:22:00,
2013-07-13 22:27:00,77.5,64.4,29.96,North,-999,-999.0,-999.0,64,-99.99,,,-99.99,meteohub,2013-07-14 03:27:00,
2013-07-13 22:32:00,77.4,64.8,29.96,North,-999,-999.0,-999.0,65,-99.99,,,-99.99,meteohub,2013-07-14 03:32:00,
2013-07-13 22:37:00,76.8,64.2,29.96,North,-999,-999.0,-999.0,65,-99.99,,,-99.99,meteohub,2013-07-14 03:37:00,
2013-07-13 22:42:00,77.0,64.4,29.96,North,-999,-999.0,-999.0,65,-99.99,,,-99.99,meteohub,2013-07-14 03:42:00,
2013-07-13 22:47:00,77.0,63.9,29.96,North,-999,-999.0,-999.0,64,-99.99,,,-99.99,meteohub,2013-07-14 03:47:00,
2013-07-13 22:52:00,76.8,63.7,29.97,North,-999,-999.0,-999.0,64,-99.99,,,-99.99,meteohub,2013-07-14 03:52:00,
2013-07-13 22:57:00,76.8,63.3,29.97,North,-999,-999.0,-999.0,63,-99.99,,,-99.99,meteohub,2013-07-14 03:57:00,
2013-07-13 23:02:00,76.6,63.1,29.98,North,-999,-999.0,-999.0,63,-99.99,,,-99.99,meteohub,2013-07-14 04:02:00,
2013-07-13 23:03:00,76.6,62.6,29.98,North,-999,-999.0,-999.0,62,-99.99,,,-99.99,meteohub,2013-07-14 04:03:00,
2013-07-13 23:07:00,76.6,62.2,29.98,North,-999,-999.0,-999.0,61,-99.99,,,-99.99,meteohub,2013-07-14 04:07:00,
2013-07-13 23:12:00,76.5,62.1,29.97,North,-999,-999.0,-999.0,61,-99.99,,,-99.99,meteohub,2013-07-14 04:12:00,
2013-07-13 23:15:00,76.5,61.5,29.97,North,-999,-999.0,-999.0,60,-99.99,,,-99.99,meteohub,2013-07-14 04:15:00,
2013-07-13 23:21:00,76.3,61.9,29.97,North,-999,-999.0,-999.0,61,-99.99,,,-99.99,meteohub,2013-07-14 04:21:00,
2013-07-13 23:24:00,76.1,61.7,29.98,North,-999,-999.0,-999.0,61,-99.99,,,-99.99,meteohub,2013-07-14 04:24:00,
2013-07-13 23:31:00,75.9,61.9,29.97,North,-999,-999.0,-999.0,62,-99.99,,,-99.99,meteohub,2013-07-14 04:31:00,
2013-07-13 23:37:00,75.7,61.9,29.97,North,-999,-999.0,-999.0,62,-99.99,,,-99.99,meteohub,2013-07-14 04:37:00,
2013-07-13 23:42:00,75.6,62.6,29.97,North,-999,-999.0,-999.0,64,-99.99,,,-99.99,meteohub,2013-07-14 04:42:00,
2013-07-13 23:47:00,75.4,62.4,29.97,North,-999,-999.0,-999.0,64,-99.99,,,-99.99,meteohub,2013-07-14 04:47:00,
2013-07-13 23:52:00,75.4,62.8,29.97,North,-999,-999.0,-999.0,65,-99.99,,,-99.99,meteohub,2013-07-14 04:52:00,
2013-07-13 23:57:00,75.2,63.1,29.98,North,-999,-999.0,-999.0,66,-99.99,,,-99.99,meteohub,2013-07-14 04:57:00,